Home   Weather   Manhattan   Past weeks

Flag for USA Past Weather in Manhattan, Kansas, USA — Yesterday and Last 2 Weeks

Now
70 °F

Sunny.


Feels Like: 76 °F
Forecast: 35 / 70 °F
Wind: 12 mph from Southwest

Location: Manhattan Municipal Airport

Current Time: Apr 23, 2017 at 5:11:11 pm

Latest Report: Apr 23, 2017 at 3:52 pm


Visibility: 10 mi

Pressure: 30.07 "Hg

Humidity: 27%

Dew Point: 34 °F

Location of ManhattanLocation

Past Weather in Manhattan — Graph

°F

Manhattan Temperature Yesterday

Maximum temperature yesterday: 66 °F (at 4:52 pm)
Minimum temperature yesterday: 39 °F (at 11:52 pm)
Average temperature yesterday: 55 °F

High & Low Weather Summary for the Past Weeks

 TemperatureHumidityPressure
High83 °F (Apr 18, 4:52 pm)97% (Apr 17, 4:52 am)30.38 "Hg (Apr 17, 4:52 am)
Low31 °F (Apr 11, 6:52 am)26% (Apr 23, 2:52 pm)29.48 "Hg (Apr 9, 4:52 am)
Average62 °F68%29.99 "Hg
* Reported Apr 8 3:52 pm — Apr 23 3:52 pm, Manhattan, Weather by CustomWeather, © 2017

Note: Actual official high and low records may vary slightly from our data, if they occured in-between our weather recording intervals... More about our weather records

Advertising

Manhattan Weather History for the Previous 24 Hours

Scroll right to see more
 ConditionsComfort  
Time TempWeatherWind HumidityBarometerVisibility
3:52 pm
Sun, Apr 23
70 °FSunny.12 mph27%30.07 "Hg10 mi
2:52 pm70 °FSunny.8 mph26%30.09 "Hg10 mi
1:52 pm68 °FSunny.5 mph27%30.12 "Hg10 mi
12:52 pm66 °FSunny.5 mph27%30.15 "Hg6 mi
11:52 am63 °FSunny.6 mph31%30.18 "Hg10 mi
10:52 am61 °FSunny.3 mph34%30.19 "Hg10 mi
9:52 am55 °FSunny.3 mph62%30.20 "Hg10 mi
8:52 am47 °FSunny.No wind80%30.21 "Hg10 mi
7:52 am39 °FSunny.No wind89%30.21 "Hg10 mi
6:52 am33 °FSunny.No wind96%30.20 "Hg10 mi
5:52 am33 °FClear.No wind96%30.18 "Hg10 mi
4:52 am34 °FClear.No wind92%30.20 "Hg10 mi
3:52 am35 °FClear.No wind88%30.20 "Hg10 mi
2:52 am37 °FClear.No wind89%30.21 "Hg10 mi
1:52 am37 °FClear.No wind93%30.22 "Hg10 mi
12:52 am39 °FClear.No wind86%30.23 "Hg10 mi
11:52 pm
Sat, Apr 22
39 °FClear.No wind86%30.22 "Hg10 mi
10:52 pm44 °FClear.No wind68%30.22 "Hg10 mi
9:52 pm47 °FClear.No wind66%30.20 "Hg10 mi
8:52 pm52 °FClear.3 mph47%30.18 "Hg10 mi
7:52 pm59 °FSunny.10 mph33%30.16 "Hg10 mi
6:52 pm64 °FSunny.12 mph30%30.15 "Hg10 mi
5:52 pm65 °FPassing clouds.17 mph32%30.15 "Hg10 mi
Weather by CustomWeather, © 2017

See weather overviewHow to use our weather pages